PST,Max TemperatureF,Mean TemperatureF,Min TemperatureF,Max Dew PointF,MeanDew PointF,Min DewpointF,Max Humidity, Mean Humidity, Min Humidity, Max Sea Level PressureIn, Mean Sea Level PressureIn, Min Sea Level PressureIn, Max VisibilityMiles, Mean VisibilityMiles, Min VisibilityMiles, Max Wind SpeedMPH, Mean Wind SpeedMPH, Max Gust SpeedMPH,PrecipitationIn, CloudCover, Events, WindDirDegrees
2012-11-1,56,42,27,41,36,26,92,71,50,30.13,30.02,29.91,10,10,4,15,6,21,T,4,Rain,221
2012-11-2,59,39,18,35,25,16,100,65,30,30.21,30.12,30.06,10,6,0,9,2,13,0.00,2,Fog,304
2012-11-3,64,47,30,41,35,29,92,66,39,30.29,30.20,30.11,10,10,7,8,1,10,0.00,3,,233
2012-11-4,69,48,27,41,32,26,100,67,33,30.46,30.38,30.31,10,6,0,12,1,20,0.00,2,Fog,111
2012-11-5,73,49,25,40,33,26,100,63,25,30.49,30.38,30.26,10,7,0,8,1,21,0.00,1,Fog,52
2012-11-6,73,48,22,36,30,21,100,63,25,30.29,30.19,30.09,10,9,1,16,3,23,0.00,0,,220
2012-11-7,65,45,24,38,32,21,92,64,36,30.13,29.98,29.76,10,10,8,20,4,25,0.00,1,,259
2012-11-8,44,36,28,34,29,26,92,73,53,29.77,29.72,29.65,10,6,1,29,5,33,0.10,7,Rain-Snow,280
2012-11-9,34,30,26,27,26,21,100,81,61,29.87,29.81,29.75,10,9,1,10,3,13,0.02,8,Snow,274
2012-11-10,32,20,7,27,23,6,100,89,78,30.32,29.97,29.81,10,6,0,14,4,18,0.14,6,Fog-Snow,233
2012-11-11,33,17,1,27,10,-2,95,80,64,30.46,30.35,30.21,10,6,0,7,0,7,0.00,3,Fog,-1
2012-11-12,48,38,27,32,28,25,92,67,42,30.41,30.35,30.30,10,9,4,9,2,12,T,5,Snow,142
2012-11-13,52,38,24,43,36,22,100,77,54,30.33,30.23,30.18,10,8,2,15,3,20,0.10,7,Rain,140
2012-11-14,55,42,28,43,37,27,100,80,59,30.21,30.18,30.14,10,5,0,7,1,9,0.00,5,Fog,39
2012-11-15,57,39,20,40,28,18,100,70,40,30.17,30.12,30.01,10,5,1,9,1,12,0.00,1,,249
2012-11-16,47,42,36,38,33,25,85,68,51,30.04,29.97,29.91,10,10,8,16,6,21,T,7,Rain,172
2012-11-17,52,42,32,41,36,32,100,83,65,29.93,29.83,29.68,10,7,1,25,11,35,0.43,8,Rain-Snow,185
2012-11-18,39,34,29,36,31,27,100,85,70,30.11,29.99,29.93,10,6,0,10,6,24,T,7,Fog-Snow,216
2012-11-19,49,43,36,37,34,29,79,70,61,30.12,30.07,30.01,10,10,10,33,17,39,0.00,7,,175
2012-11-20,56,51,45,42,38,35,71,65,59,29.99,29.86,29.75,10,10,10,30,19,38,0.01,7,Rain,174
2012-11-21,50,37,24,40,34,23,92,73,53,30.32,30.03,29.77,10,10,3,28,10,37,0.06,5,Rain,246
2012-11-22,52,35,18,33,27,18,100,72,44,30.42,30.37,30.32,10,9,5,10,3,12,0.00,0,,52
2012-11-23,59,42,24,35,29,24,92,66,40,30.43,30.34,30.27,10,10,7,7,1,10,0.00,0,,90
2012-11-24,58,39,19,32,25,16,100,65,30,30.36,30.24,30.11,10,7,0,6,0,7,0.00,2,Fog,115
2012-11-25,53,39,25,35,30,25,100,72,44,30.16,30.10,30.02,10,10,3,8,1,9,0.00,3,,82
2012-11-26,59,40,20,35,25,19,100,64,28,30.17,30.12,30.04,10,8,2,15,4,18,0.00,0,,172
2012-11-27,60,40,19,29,24,18,96,60,24,30.22,30.12,30.02,10,9,3,18,3,24,0.00,0,,175
2012-11-28,51,41,30,39,31,24,85,62,38,30.01,29.89,29.81,10,10,5,35,10,46,0.02,6,Rain,176
2012-11-29,54,47,40,40,35,29,83,65,46,29.92,29.81,29.62,10,10,10,33,17,46,0.07,6,Rain,166
2012-11-30,47,43,39,41,38,34,93,79,65,29.79,29.73,29.64,10,10,8,29,11,41,0.42,7,Rain,184